HK6RM-20 Weather Reports


Display with metric or nautical units.
time (UTC)temp
F
wind
direction
speed
MPH
gust
MPH
rain 1hr
in
rain 24hr
in
rain mn
in
humidity
%
barometer
mb
20260901000339 73 99 1.0 1.0 0.00 0.00 0.00 57 1013.0
20260831235038 74 99 1.0 1.0 0.00 0.00 0.00 57 1013.0
20260831233738 75 99 1.0 2.0 0.00 0.00 0.00 57 1013.0
20260831232437 76 123 0.0 1.0 0.00 0.00 0.00 57 1012.0
20260831231137 77 123 0.0 1.0 0.00 0.00 0.00 57 1011.0
20260831225836 78 123 0.0 1.0 0.00 0.00 0.00 57 1011.0
20260831224536 79 123 0.0 1.0 0.00 0.00 0.00 57 1011.0
20260831223235 80 123 0.0 1.0 0.00 0.00 0.00 57 1011.0
20260831221935 81 140 0.0 0.0 0.00 0.00 0.00 57 1010.0
20260831220634 82 140 0.0 0.0 0.00 0.00 0.00 57 1010.0
20260831215334 83 140 0.0 0.0 0.00 0.00 0.00 57 1010.0
20260831214033 84 140 0.0 0.0 0.00 0.00 0.00 57 1010.0
20260831212733 85 230 0.0 1.0 0.00 0.00 0.00 57 1010.0
20260831211432 77 292 1.0 1.0 0.00 0.00 0.00 62 1010.0
20260831210132 78 292 1.0 1.0 0.00 0.00 0.00 62 1010.0
20260831204831 79 292 1.0 1.0 0.00 0.00 0.00 62 1010.0
20260831203531 80 292 1.0 1.0 0.00 0.00 0.00 62 1010.0
20260831202230 81 292 1.0 1.0 0.00 0.00 0.00 62 1010.0
20260831200930 82 292 1.0 1.0 0.00 0.00 0.00 62 1010.0
20260831195629 83 292 1.0 1.0 0.00 0.00 0.00 62 1010.0
20260831194329 84 292 1.0 1.0 0.00 0.00 0.00 62 1010.0
20260831193028 85 292 1.0 1.0 0.00 0.00 0.00 62 1010.0
20260831191728 86 292 1.0 1.0 0.00 0.00 0.00 62 1011.0
20260831190427 77 288 1.0 1.0 0.00 0.00 0.00 68 1011.0
20260831185127 78 288 1.0 1.0 0.00 0.00 0.00 68 1011.0
20260831183826 79 288 1.0 1.0 0.00 0.00 0.00 68 1011.0
20260831182526 80 288 1.0 1.0 0.00 0.00 0.00 68 1012.0
20260831181225 81 288 2.0 2.0 0.00 0.00 0.00 68 1012.0
20260831175925 76 286 1.0 1.0 0.00 0.00 0.00 69 1012.0
20260831174624 77 286 1.0 1.0 0.00 0.00 0.00 69 1012.0
20260831173324 78 286 1.0 1.0 0.00 0.00 0.00 69 1012.0
20260831172023 79 286 1.0 1.0 0.00 0.00 0.00 69 1013.0
20260831170723 80 286 1.0 1.0 0.00 0.00 0.00 69 1013.0
20260831165423 75 300 1.0 1.0 0.00 0.00 0.00 79 1013.0
20260831164122 76 300 1.0 1.0 0.00 0.00 0.00 79 1014.0
20260831162822 77 300 1.0 1.0 0.00 0.00 0.00 79 1014.0
20260831162147 78 300 1.0 1.0 0.00 0.00 0.00 79 1014.0
20260831160847 75 300 1.0 1.0 0.00 0.00 0.00 80 1014.0
20260831155546 76 300 1.0 1.0 0.00 0.00 0.00 80 1014.0
20260831154246 75 280 1.0 1.0 0.00 0.00 0.00 81 1014.0
20260831152945 76 280 1.0 1.0 0.00 0.00 0.00 81 1015.0
20260831151645 77 280 1.0 1.0 0.00 0.00 0.00 81 1015.0
20260831150344 74 280 1.0 1.0 0.00 0.00 0.00 82 1015.0
20260831145044 75 280 1.0 1.0 0.00 0.00 0.00 82 1015.0
20260831143743 76 280 1.0 1.0 0.00 0.00 0.00 82 1015.0
20260831142443 72 290 1.0 0.0 0.00 0.00 0.00 89 1015.0
20260831141142 73 290 1.0 0.0 0.00 0.00 0.00 89 1015.0
20260831135842 74 290 1.0 0.0 0.00 0.00 0.00 89 1015.0
20260831134541 75 290 1.0 0.0 0.00 0.00 0.00 89 1015.0
20260831133241 70 290 1.0 0.0 0.00 0.00 0.00 93 1015.0
20260831131940 71 261 0.0 0.0 0.00 0.00 0.00 93 1015.0
20260831130640 72 261 0.0 0.0 0.00 0.00 0.00 93 1015.0
20260831125339 73 261 0.0 0.0 0.00 0.00 0.00 93 1015.0
20260831124039 67 261 0.0 0.0 0.00 0.00 0.00 93 1015.0
20260831122738 68 79 0.0 1.0 0.00 0.00 0.00 93 1015.0
20260831121438 69 79 0.0 1.0 0.00 0.00 0.00 93 1015.0
20260831120137 70 79 0.0 1.0 0.00 0.00 0.00 93 1015.0
20260831114837 71 79 0.0 1.0 0.00 0.00 0.00 93 1015.0
20260831113536 64 82 1.0 1.0 0.00 0.00 0.00 93 1015.0
20260831112236 65 82 1.0 1.0 0.00 0.00 0.00 93 1016.0
20260831110935 66 82 1.0 1.0 0.00 0.00 0.00 93 1016.0
20260831105635 67 82 1.0 1.0 0.00 0.00 0.00 93 1015.0
20260831104335 68 82 1.0 1.0 0.00 0.00 0.00 93 1015.0
20260831103034 69 82 1.0 1.0 0.00 0.00 0.00 93 1015.0
20260831101733 70 82 1.0 1.0 0.00 0.00 0.00 93 1015.0
20260831100433 64 85 1.0 1.0 0.00 0.00 0.00 94 1015.0
20260831095133 65 85 1.0 1.0 0.00 0.00 0.00 94 1015.0
20260831093832 66 85 1.0 1.0 0.00 0.00 0.00 94 1015.0
20260831092531 67 85 1.0 1.0 0.00 0.00 0.00 94 1014.0
20260831091231 68 85 1.0 1.0 0.00 0.00 0.00 94 1014.0
20260831085931 69 85 1.0 1.0 0.00 0.00 0.00 94 1014.0
20260831084630 65 86 1.0 1.0 0.00 0.00 0.00 93 1014.0
20260831083330 66 86 1.0 1.0 0.00 0.00 0.00 93 1014.0
20260831082029 67 86 1.0 1.0 0.00 0.00 0.00 93 1014.0
20260831080728 68 86 1.0 1.0 0.00 0.00 0.00 93 1014.0
20260831075428 69 86 1.0 1.0 0.00 0.00 0.00 93 1014.0
20260831074128 70 86 1.0 1.0 0.00 0.00 0.00 93 1014.0
20260831072827 65 92 1.0 1.0 0.00 0.00 0.00 89 1014.0
20260831071527 66 92 1.0 1.0 0.00 0.00 0.00 89 1014.0
20260831070226 67 92 1.0 1.0 0.00 0.00 0.00 89 1014.0
20260831064925 68 92 1.0 1.0 0.00 0.00 0.00 89 1014.0
20260831063625 69 92 1.0 1.0 0.00 0.00 0.00 89 1014.0
20260831062325 70 92 1.0 1.0 0.00 0.00 0.00 89 1015.0
20260831061024 66 103 1.0 1.0 0.00 0.00 0.00 88 1015.0
20260831055724 67 103 1.0 1.0 0.00 0.00 0.00 88 1015.0
20260831054423 68 103 1.0 1.0 0.00 0.00 0.00 88 1015.0
20260831053123 69 103 1.0 1.0 0.00 0.00 0.00 88 1015.0
20260831051823 70 103 1.0 1.0 0.00 0.00 0.00 88 1015.0
20260831050719 71 103 1.0 1.0 0.00 0.00 0.00 88 1015.0
20260831045419 72 103 1.0 1.0 0.00 0.00 0.00 88 1015.0
20260831042600 67 102 1.0 1.0 0.03 0.00 0.00 74 1015.0
20260831041300 68 102 1.0 1.0 0.02 0.00 0.00 74 1015.0
20260831035959 69 102 1.0 1.0 0.03 0.00 0.00 74 1015.0
20260831034659 70 102 1.0 1.0 0.01 0.00 0.00 74 1015.0
20260831033358 71 102 1.0 1.0 0.01 0.00 0.00 74 1015.0
20260831032058 72 102 1.0 1.0 0.00 0.00 0.00 74 1015.0
20260831030757 73 102 2.0 1.0 0.00 0.00 0.00 74 1015.0
20260831025457 67 102 1.0 1.0 0.00 0.00 0.00 70 1015.0
20260831024156 68 102 2.0 1.0 0.00 0.00 0.00 70 1015.0
20260831022856 69 112 0.0 1.0 0.00 0.00 0.00 70 1014.0
20260831021556 70 112 0.0 1.0 0.00 0.00 0.00 70 1014.0
20260831020255 71 112 0.0 1.0 0.00 0.00 0.00 70 1014.0
20260831014954 72 112 0.0 1.0 0.00 0.00 0.00 70 1014.0
20260831013654 73 112 0.0 1.0 0.00 0.00 0.00 70 1014.0
20260831012353 74 106 0.0 1.0 0.00 0.00 0.00 70 1013.0
20260831011053 68 154 1.0 5.0 0.00 0.00 0.00 62 1013.0
20260831005752 69 154 1.0 5.0 0.00 0.00 0.00 62 1013.0
20260831004452 70 154 1.0 5.0 0.00 0.00 0.00 62 1013.0
20260831003151 71 154 1.0 5.0 0.00 0.00 0.00 62 1013.0
20260831001851 72 154 1.0 5.0 0.00 0.00 0.00 62 1011.0